sat.trackr.live / text

‹ back to catalog

STARLINK-36846

NORAD 67894 · 2026-035R

PAYLOAD ACTIVE UNKNOWN

§ Identity

Operator
Country
US
Launch date
2026-02-21
Launch site
AFWTR
Launch vehicle
Mass (kg)
RCS (m²)

Purposes: comms

External: N2YO · Heavens-Above · Gunter

§ Orbital elements

Epoch: 2026-05-25T02:07:33.280896Z

Period
93.91 min
Inclination
97.2850°
Eccentricity
0.0001658
Mean motion
15.33457329 rev/d
Perigee alt
464.4 km
Apogee alt
466.6 km
Semi-major
6,843.6 km
B*
7.6445e-4
RAAN
78.5739°
Arg perigee
95.4222°
Mean anomaly
264.7209°
Rev number
1,569

§ Raw data

STARLINK-368461 67894U 26035R   26145.08857964  .00024695  00000+0  76445-3 0  99992 67894  97.2850  78.5739 0001658  95.4222 264.7209 15.33457329 15693

JSON: /api/v1/satellites/67894 · /tle

For live sub-satellite position, see the globe view (requires WebGL).

§ Visibility from observer

Set your observer location to see the next 7 days of passes ≥ 10°. The values pass through the URL so the page stays shareable.

No JS? Fill the form by hand. The geolocation button needs JavaScript.